DD3UTS-13 Weather Reports


time (UTC)temp
C
wind
direction
speed
KPH
gust
KPH
rain 1hr
cm
rain 24hr
cm
rain mn
cm
humidity
%
barometer
mb
20260906035031 11 285 14.5 0.0 0.00 0.03 0.00 76 1024.0
20260906034532 11 272 17.7 0.0 0.00 0.03 0.00 76 1024.0
20260906034032 11 270 17.7 0.0 0.00 0.03 0.00 76 1024.0
20260906033531 11 290 14.5 0.0 0.00 0.03 0.00 76 1024.0
20260906033032 11 280 17.7 0.0 0.00 0.03 0.00 76 1023.9
20260906032531 11 282 14.5 0.0 0.00 0.03 0.00 76 1023.9
20260906032031 11 290 17.7 0.0 0.00 0.03 0.00 76 1023.9
20260906031532 11 280 19.3 0.0 0.00 0.03 0.00 76 1023.8
20260906031032 11 282 20.9 0.0 0.00 0.03 0.00 76 1023.8
20260906030531 11 285 19.3 0.0 0.00 0.03 0.00 76 1023.7
20260906030032 11 287 14.5 0.0 0.00 0.03 0.00 76 1023.8
20260906025532 11 297 17.7 0.0 0.00 0.03 0.00 75 1023.7
20260906025032 11 302 12.9 0.0 0.00 0.03 0.00 75 1023.6
20260906024531 11 300 14.5 0.0 0.00 0.03 0.00 75 1023.6
20260906024032 11 307 16.1 0.0 0.00 0.03 0.00 75 1023.6
20260906023531 12 307 16.1 0.0 0.00 0.03 0.00 75 1023.5
20260906023032 12 295 14.5 0.0 0.00 0.03 0.00 74 1023.5
20260906022532 12 310 19.3 0.0 0.00 0.03 0.00 73 1023.6
20260906022032 12 300 17.7 0.0 0.00 0.03 0.00 73 1023.5
20260906021531 12 300 16.1 0.0 0.00 0.03 0.00 72 1023.3
20260906021031 12 330 17.7 0.0 0.00 0.03 0.00 72 1023.3
20260906020532 12 300 14.5 0.0 0.00 0.03 0.00 72 1023.3
20260906020032 12 307 14.5 0.0 0.00 0.03 0.00 72 1023.2
20260906015532 12 307 19.3 0.0 0.00 0.03 0.00 71 1023.3
20260906015032 12 317 19.3 0.0 0.00 0.03 0.00 71 1023.3
20260906014532 12 310 19.3 0.0 0.00 0.03 0.00 71 1023.3
20260906014032 13 312 22.5 0.0 0.00 0.03 0.00 71 1023.3
20260906013531 13 292 19.3 0.0 0.00 0.03 0.00 70 1023.3
20260906013031 13 305 22.5 0.0 0.00 0.03 0.00 70 1023.2
20260906012531 13 335 17.7 0.0 0.00 0.03 0.00 70 1023.3
20260906012032 13 292 19.3 0.0 0.00 0.03 0.00 70 1023.2
20260906011532 13 297 14.5 0.0 0.00 0.03 0.00 70 1023.1
20260906011032 13 330 14.5 0.0 0.00 0.03 0.00 69 1023.1
20260906010532 13 340 14.5 0.0 0.00 0.03 0.00 69 1023.0
20260906010032 13 317 16.1 0.0 0.00 0.03 0.00 69 1023.1
20260906005531 13 312 17.7 0.0 0.00 0.03 0.00 70 1023.1
20260906005031 13 312 20.9 0.0 0.00 0.03 0.00 70 1023.1
20260906004531 13 340 17.7 0.0 0.00 0.03 0.00 69 1023.0
20260906004032 13 327 17.7 0.0 0.00 0.03 0.00 69 1023.0
20260906003532 13 327 17.7 0.0 0.00 0.03 0.00 69 1022.9
20260906003031 13 302 20.9 0.0 0.00 0.03 0.00 68 1023.0
20260906002532 13 312 17.7 0.0 0.00 0.03 0.00 68 1022.9
20260906002032 13 315 17.7 0.0 0.00 0.03 0.00 70 1022.8
20260906001531 13 315 17.7 0.0 0.00 0.03 0.00 70 1022.8
20260906001031 13 315 17.7 0.0 0.00 0.03 0.00 70 1022.8
20260906000531 13 315 17.7 0.0 0.00 0.03 0.00 70 1022.8
20260906000032 13 315 17.7 0.0 0.00 0.03 0.00 70 1022.8
20260905235531 13 290 16.1 0.0 0.00 0.03 0.00 70 1022.8
20260905235032 13 295 16.1 0.0 0.00 0.03 0.00 70 1022.8
20260905234532 13 285 16.1 0.0 0.00 0.03 0.00 69 1022.7
20260905234031 13 335 16.1 0.0 0.00 0.03 0.00 69 1022.8
20260905233531 13 327 14.5 0.0 0.00 0.03 0.00 69 1022.6
20260905233031 13 315 16.1 0.0 0.00 0.03 0.00 69 1022.6
20260905232532 13 285 19.3 0.0 0.00 0.03 0.00 69 1022.6
20260905232032 13 275 22.5 0.0 0.00 0.03 0.00 70 1022.6
20260905231532 13 317 19.3 0.0 0.00 0.03 0.00 69 1022.6
20260905230532 13 290 20.9 0.0 0.00 0.03 0.00 69 1022.4
20260905230032 13 292 20.9 0.0 0.00 0.03 0.00 70 1022.2
20260905225532 13 315 16.1 0.0 0.00 0.03 0.00 70 1022.2
20260905225032 13 287 17.7 0.0 0.00 0.03 0.00 69 1022.3
20260905224532 13 312 17.7 0.0 0.00 0.03 0.00 69 1022.2
20260905224032 13 305 16.1 0.0 0.00 0.03 0.00 69 1022.1
20260905223531 13 292 16.1 0.0 0.00 0.03 0.00 69 1022.1
20260905223032 13 297 22.5 0.0 0.00 0.03 0.00 69 1022.1
20260905222531 13 305 14.5 0.0 0.00 0.03 0.00 69 1022.0
20260905222032 13 300 17.7 0.0 0.00 0.03 0.00 69 1022.0
20260905221532 14 290 19.3 0.0 0.00 0.03 0.00 68 1022.0
20260905221031 14 280 17.7 0.0 0.00 0.03 0.00 68 1022.0
20260905220532 14 287 19.3 0.0 0.00 0.03 0.00 68 1021.9
20260905220032 14 280 19.3 0.0 0.00 0.03 0.00 68 1022.0
20260905215532 14 290 19.3 0.0 0.00 0.03 0.00 68 1021.9
20260905215031 14 270 19.3 0.0 0.00 0.03 0.00 68 1021.9
20260905214531 14 282 22.5 0.0 0.00 0.03 0.00 68 1021.9
20260905214032 14 285 14.5 0.0 0.00 0.03 0.00 68 1021.8
20260905213532 14 275 19.3 0.0 0.00 0.03 0.00 68 1021.8
20260905213032 14 280 17.7 0.0 0.00 0.03 0.00 68 1021.7
20260905212531 14 290 16.1 0.0 0.00 0.03 0.00 68 1021.8
20260905212032 14 310 19.3 0.0 0.00 0.03 0.00 67 1021.7
20260905211532 14 300 16.1 0.0 0.00 0.03 0.00 67 1021.7
20260905211031 14 315 14.5 0.0 0.00 0.03 0.00 67 1021.6
20260905210531 14 325 14.5 0.0 0.00 0.03 0.00 67 1021.6
20260905210032 14 305 17.7 0.0 0.00 0.03 0.00 67 1021.5
20260905205532 14 295 12.9 0.0 0.00 0.03 0.00 66 1021.6
20260905205032 15 317 12.9 0.0 0.00 0.03 0.00 66 1021.6
20260905204532 15 300 19.3 0.0 0.00 0.03 0.00 66 1021.5
20260905204032 15 300 16.1 0.0 0.00 0.03 0.00 66 1021.5
20260905203532 15 315 19.3 0.0 0.00 0.03 0.00 66 1021.4
20260905203032 15 292 24.1 0.0 0.00 0.03 0.00 66 1021.4
20260905202532 15 325 16.1 0.0 0.00 0.03 0.00 67 1021.3
20260905202031 15 315 19.3 0.0 0.00 0.03 0.00 67 1021.2
20260905201532 15 305 17.7 0.0 0.00 0.03 0.00 68 1021.1
20260905201032 14 300 22.5 0.0 0.00 0.03 0.00 69 1021.1
20260905200531 14 290 17.7 0.0 0.00 0.03 0.00 69 1021.0
20260905200032 14 305 16.1 0.0 0.00 0.03 0.00 69 1020.9
20260905195532 14 295 20.9 0.0 0.00 0.03 0.00 69 1021.0
20260905195032 15 292 14.5 0.0 0.00 0.03 0.00 69 1021.0
20260905194532 15 287 20.9 0.0 0.00 0.03 0.00 69 1021.0
20260905194032 14 295 17.7 0.0 0.00 0.03 0.00 69 1020.9
20260905193532 15 287 19.3 0.0 0.00 0.03 0.00 68 1020.8
20260905193032 15 302 14.5 0.0 0.00 0.03 0.00 68 1020.7
20260905192531 15 300 22.5 0.0 0.00 0.03 0.00 68 1020.6
20260905192032 15 315 25.7 0.0 0.00 0.03 0.00 68 1020.5
20260905191532 15 305 17.7 0.0 0.00 0.03 0.00 68 1020.6
20260905191032 15 297 14.5 0.0 0.00 0.03 0.00 68 1020.6
20260905190532 15 295 16.1 0.0 0.00 0.03 0.00 68 1020.4
20260905190032 15 275 19.3 0.0 0.00 0.03 0.00 68 1020.4
20260905185532 15 317 22.5 0.0 0.00 0.03 0.00 68 1020.4
20260905185032 15 305 20.9 0.0 0.00 0.03 0.00 68 1020.4
20260905184531 15 300 17.7 0.0 0.00 0.03 0.00 68 1020.3
20260905184031 15 305 20.9 0.0 0.00 0.03 0.00 68 1020.4
20260905183532 15 312 14.5 0.0 0.00 0.03 0.00 67 1020.4
20260905183031 15 300 16.1 0.0 0.00 0.03 0.00 67 1020.3
20260905182532 15 335 16.1 0.0 0.00 0.03 0.00 67 1020.3
20260905182032 15 305 17.7 0.0 0.00 0.03 0.00 66 1020.4
20260905181531 15 320 16.1 0.0 0.00 0.03 0.00 66 1020.2
20260905181031 15 300 16.1 0.0 0.00 0.03 0.00 65 1020.3
20260905180531 16 320 14.5 0.0 0.00 0.03 0.00 64 1020.1
20260905180032 16 355 22.5 0.0 0.00 0.03 0.00 62 1019.8
20260905175532 16 337 14.5 0.0 0.00 0.03 0.00 60 1019.9
20260905175032 17 305 16.1 0.0 0.00 0.03 0.00 58 1019.8
20260905174532 17 320 16.1 0.0 0.00 0.03 0.00 55 1019.8
20260905174031 17 305 24.1 0.0 0.00 0.03 0.00 54 1019.4
20260905173531 17 297 24.1 0.0 0.00 0.03 0.00 53 1019.2
20260905173032 17 290 25.7 0.0 0.00 0.03 0.00 53 1019.1
20260905172531 17 295 29.0 0.0 0.00 0.03 0.00 53 1019.1
20260905172031 17 272 25.7 0.0 0.00 0.03 0.00 52 1019.2
20260905171531 18 272 27.4 0.0 0.00 0.03 0.00 51 1019.1
20260905171032 18 280 32.2 0.0 0.00 0.03 0.00 51 1019.0
20260905170532 18 272 24.1 0.0 0.00 0.03 0.00 51 1018.7
20260905170032 18 282 24.1 0.0 0.00 0.03 0.00 51 1018.8
20260905165531 18 272 25.7 0.0 0.00 0.03 0.00 50 1018.7
20260905165032 18 277 22.5 0.0 0.00 0.03 0.00 50 1018.8
20260905164531 18 270 24.1 0.0 0.00 0.03 0.00 50 1018.7
20260905164032 18 285 25.7 0.0 0.00 0.03 0.00 49 1018.7
20260905163532 18 282 35.4 0.0 0.00 0.03 0.00 48 1018.6
20260905163032 18 292 30.6 0.0 0.00 0.03 0.00 48 1018.6
20260905162531 18 280 29.0 0.0 0.00 0.03 0.00 48 1018.3
20260905162031 18 285 27.4 0.0 0.00 0.03 0.00 47 1018.5
20260905161532 18 287 30.6 0.0 0.00 0.03 0.00 47 1018.5
20260905161031 18 297 32.2 0.0 0.00 0.03 0.00 47 1018.4
20260905160532 19 270 29.0 0.0 0.00 0.03 0.00 47 1018.3
20260905160033 19 275 29.0 0.0 0.00 0.03 0.00 46 1018.5
20260905155531 19 267 29.0 0.0 0.00 0.03 0.00 48 1018.4
20260905155032 19 270 27.4 0.0 0.00 0.03 0.00 48 1018.5
20260905154531 20 265 25.7 0.0 0.00 0.03 0.00 47 1018.5
20260905154032 19 262 29.0 0.0 0.00 0.03 0.00 48 1018.5
20260905153531 19 265 30.6 0.0 0.00 0.03 0.00 49 1018.4
20260905153032 19 262 35.4 0.0 0.00 0.03 0.00 48 1018.4
20260905152532 19 270 41.8 0.0 0.00 0.03 0.00 49 1018.4
20260905152031 19 275 33.8 0.0 0.00 0.03 0.00 48 1018.3
20260905151531 20 285 30.6 0.0 0.00 0.03 0.00 47 1018.5
20260905151032 20 270 33.8 0.0 0.00 0.03 0.00 47 1018.4
20260905150532 20 265 27.4 0.0 0.00 0.03 0.00 47 1018.3
20260905150031 20 260 32.2 0.0 0.00 0.03 0.00 46 1018.3
20260905145532 20 280 30.6 0.0 0.00 0.03 0.00 47 1018.5
20260905145031 20 265 29.0 0.0 0.00 0.03 0.00 48 1018.3
20260905144531 20 270 32.2 0.0 0.00 0.03 0.00 47 1018.2
20260905144032 20 270 29.0 0.0 0.00 0.03 0.00 47 1017.8
20260905143532 20 280 27.4 0.0 0.00 0.03 0.00 47 1018.3
20260905143032 20 260 33.8 0.0 0.00 0.03 0.00 47 1018.3
20260905142531 20 270 30.6 0.0 0.00 0.03 0.00 48 1018.3
20260905142032 20 300 33.8 0.0 0.00 0.03 0.00 47 1018.2
20260905141532 20 290 32.2 0.0 0.00 0.03 0.00 48 1018.4
20260905141031 18 297 35.4 0.0 0.00 0.03 0.00 48 1018.2
20260905140532 19 287 32.2 0.0 0.00 0.03 0.00 50 1018.0
20260905140032 19 277 30.6 0.0 0.00 0.03 0.00 50 1018.3
20260905135532 18 275 30.6 0.0 0.00 0.03 0.00 49 1018.1
20260905135032 19 260 41.8 0.0 0.00 0.03 0.00 49 1018.1
20260905134532 19 275 32.2 0.0 0.00 0.03 0.00 49 1018.2
20260905134031 19 282 37.0 0.0 0.00 0.03 0.00 49 1018.0
20260905133531 18 257 32.2 0.0 0.00 0.03 0.00 50 1018.0
20260905133031 19 270 37.0 0.0 0.00 0.03 0.00 50 1017.9
20260905132532 19 270 37.0 0.0 0.00 0.03 0.00 49 1018.3
20260905132032 19 272 37.0 0.0 0.00 0.03 0.00 50 1018.0
20260905131531 19 275 29.0 0.0 0.00 0.03 0.00 51 1018.2
20260905131031 20 257 40.2 0.0 0.00 0.03 0.00 50 1018.1
20260905130532 20 262 32.2 0.0 0.00 0.03 0.00 50 1018.1
20260905130032 19 260 32.2 0.0 0.00 0.03 0.00 50 1018.0
20260905125531 19 275 43.5 0.0 0.00 0.03 0.00 48 1018.0
20260905125032 19 260 32.2 0.0 0.00 0.03 0.00 52 1017.9
20260905124531 19 257 27.4 0.0 0.00 0.03 0.00 51 1017.9
20260905124032 19 260 32.2 0.0 0.00 0.03 0.00 51 1017.9
20260905123532 18 282 30.6 0.0 0.00 0.03 0.00 52 1017.9
20260905123032 18 275 29.0 0.0 0.00 0.03 0.00 50 1017.7
20260905122531 19 287 29.0 0.0 0.00 0.03 0.00 51 1017.9
20260905122032 19 292 33.8 0.0 0.00 0.03 0.00 51 1017.8
20260905121531 19 292 27.4 0.0 0.00 0.03 0.00 52 1017.8
20260905121032 19 285 29.0 0.0 0.00 0.03 0.00 52 1017.7
20260905120532 19 270 25.7 0.0 0.00 0.03 0.00 53 1018.0
20260905120032 18 272 38.6 0.0 0.00 0.03 0.00 51 1017.9
20260905115532 18 260 30.6 0.0 0.00 0.00 0.00 53 1018.0
20260905115032 18 260 29.0 0.0 0.00 0.00 0.00 55 1018.1
20260905114531 18 260 27.4 0.0 0.00 0.00 0.00 55 1018.1
20260905114032 18 265 24.1 0.0 0.00 0.00 0.00 56 1018.1
20260905113531 17 262 30.6 0.0 0.00 0.00 0.00 56 1018.3
20260905113032 18 265 32.2 0.0 0.00 0.00 0.00 53 1018.2
20260905112532 19 260 30.6 0.0 0.00 0.00 0.00 55 1018.4
20260905112031 18 265 33.8 0.0 0.00 0.00 0.00 54 1018.2
20260905111531 18 267 33.8 0.0 0.00 0.00 0.00 57 1018.5
20260905111032 18 277 51.5 0.0 0.00 0.00 0.00 55 1018.2
20260905110531 18 265 35.4 0.0 0.00 0.00 0.00 56 1018.6
20260905110031 18 262 33.8 0.0 0.00 0.00 0.00 57 1018.5
20260905105532 17 265 40.2 0.0 0.00 0.00 0.00 58 1018.5
20260905105032 18 280 35.4 0.0 0.00 0.00 0.00 55 1018.3
20260905104531 18 270 30.6 0.0 0.00 0.00 0.00 56 1018.5
20260905104032 18 265 30.6 0.0 0.00 0.00 0.00 56 1018.5
20260905103532 18 267 35.4 0.0 0.00 0.00 0.00 58 1018.3
20260905103032 18 260 27.4 0.0 0.00 0.00 0.00 59 1018.2
20260905102532 18 265 29.0 0.0 0.00 0.00 0.00 60 1018.3
20260905102032 17 255 33.8 0.0 0.00 0.00 0.00 61 1018.3
20260905101532 16 265 27.4 0.0 0.00 0.00 0.00 61 1018.2
20260905101031 16 275 32.2 0.0 0.00 0.00 0.00 62 1018.1
20260905100532 16 270 29.0 0.0 0.00 0.00 0.00 62 1018.1
20260905100032 17 285 20.9 0.0 0.00 0.00 0.00 62 1018.1
20260905095532 17 280 24.1 0.0 0.00 0.00 0.00 60 1018.0
20260905095032 17 280 29.0 0.0 0.00 0.00 0.00 61 1017.9
20260905094532 17 257 32.2 0.0 0.00 0.00 0.00 61 1017.9
20260905094031 17 265 32.2 0.0 0.00 0.00 0.00 63 1017.9
20260905093531 16 270 33.8 0.0 0.00 0.00 0.00 65 1018.0
20260905093031 16 252 30.6 0.0 0.00 0.00 0.00 65 1018.1
20260905092532 16 260 27.4 0.0 0.00 0.00 0.00 66 1017.9
20260905092031 16 262 29.0 0.0 0.00 0.00 0.00 65 1017.8
20260905091531 16 270 27.4 0.0 0.00 0.00 0.00 65 1017.7
20260905091032 17 255 30.6 0.0 0.00 0.00 0.00 66 1017.6
20260905090532 17 265 22.5 0.0 0.00 0.00 0.00 67 1017.5
20260905090031 16 260 24.1 0.0 0.00 0.00 0.00 68 1017.7
20260905085532 16 255 30.6 0.0 0.00 0.00 0.00 68 1017.5
20260905085031 16 250 32.2 0.0 0.00 0.00 0.00 67 1017.5
20260905084532 16 260 30.6 0.0 0.00 0.00 0.00 68 1017.5
20260905084031 16 255 30.6 0.0 0.00 0.00 0.00 69 1017.4
20260905083532 16 265 29.0 0.0 0.00 0.00 0.00 70 1017.6
20260905083031 16 265 19.3 0.0 0.00 0.00 0.00 71 1017.5
20260905082532 16 255 22.5 0.0 0.00 0.00 0.00 70 1017.5
20260905082032 16 252 25.7 0.0 0.00 0.00 0.00 70 1017.5
20260905081531 16 265 24.1 0.0 0.00 0.00 0.00 71 1017.5
20260905081031 16 247 25.7 0.0 0.00 0.00 0.00 72 1017.5
20260905080531 16 255 22.5 0.0 0.00 0.00 0.00 72 1017.4
20260905080031 16 242 24.1 0.0 0.00 0.00 0.00 71 1017.4
20260905075531 16 250 27.4 0.0 0.00 0.00 0.00 71 1017.4
20260905075032 16 250 30.6 0.0 0.00 0.00 0.00 72 1017.1
20260905074532 16 257 27.4 0.0 0.00 0.00 0.00 73 1017.3
20260905074031 16 252 25.7 0.0 0.00 0.00 0.00 73 1017.4
20260905073531 16 260 22.5 0.0 0.00 0.00 0.00 75 1017.2
20260905073032 16 262 22.5 0.0 0.00 0.00 0.00 76 1017.1
20260905072532 15 260 25.7 0.0 0.00 0.00 0.00 75 1017.2
20260905072031 15 250 24.1 0.0 0.00 0.00 0.00 76 1017.0
20260905071532 15 255 30.6 0.0 0.00 0.00 0.00 76 1017.0
20260905071031 15 247 24.1 0.0 0.00 0.00 0.00 77 1017.0
20260905070532 15 257 25.7 0.0 0.00 0.00 0.00 77 1017.1
20260905070031 15 262 25.7 0.0 0.00 0.00 0.00 77 1017.1
20260905065532 15 257 25.7 0.0 0.00 0.00 0.00 78 1017.0
20260905065032 15 265 24.1 0.0 0.00 0.00 0.00 78 1016.9
20260905064531 15 255 20.9 0.0 0.00 0.00 0.00 79 1016.8
20260905064032 15 255 24.1 0.0 0.00 0.00 0.00 79 1016.8
20260905063531 15 257 17.7 0.0 0.00 0.00 0.00 80 1016.7
20260905063032 14 262 22.5 0.0 0.00 0.00 0.00 81 1016.7
20260905062532 14 257 20.9 0.0 0.00 0.00 0.00 81 1016.7
20260905062032 14 252 19.3 0.0 0.00 0.00 0.00 83 1016.7
20260905061532 14 247 20.9 0.0 0.00 0.00 0.00 84 1016.6
20260905061031 14 252 19.3 0.0 0.00 0.00 0.00 84 1016.6
20260905060532 13 255 19.3 0.0 0.00 0.00 0.00 85 1016.6
20260905060031 13 260 19.3 0.0 0.00 0.00 0.00 85 1016.5
20260905055532 13 237 19.3 0.0 0.00 0.00 0.00 85 1016.6
20260905055031 13 255 17.7 0.0 0.00 0.00 0.00 85 1016.5
20260905054531 13 257 17.7 0.0 0.00 0.00 0.00 85 1016.4
20260905054031 13 255 20.9 0.0 0.00 0.00 0.00 86 1016.2
20260905053531 13 262 19.3 0.0 0.00 0.00 0.00 86 1016.3
20260905053032 13 255 19.3 0.0 0.00 0.00 0.00 86 1016.3
20260905052532 13 260 19.3 0.0 0.00 0.00 0.00 86 1016.1
20260905052031 13 255 19.3 0.0 0.00 0.00 0.00 86 1016.2
20260905051532 13 260 17.7 0.0 0.00 0.00 0.00 86 1016.1
20260905051032 13 265 17.7 0.0 0.00 0.00 0.00 86 1016.1
20260905050531 13 260 20.9 0.0 0.00 0.00 0.00 86 1015.9
20260905050031 13 260 24.1 0.0 0.00 1.09 0.00 86 1015.9
20260905045532 13 250 19.3 0.0 0.00 1.09 0.00 86 1015.9
20260905045032 13 257 20.9 0.0 0.00 1.09 0.00 86 1015.8
20260905044533 13 262 16.1 0.0 0.00 1.09 0.00 86 1015.7
20260905044031 13 265 16.1 0.0 0.00 1.09 0.00 86 1015.7
20260905043531 13 285 19.3 0.0 0.00 1.09 0.00 86 1015.6
20260905043031 13 265 27.4 0.0 0.00 1.09 0.00 86 1015.5
20260905042531 13 265 22.5 0.0 0.00 1.09 0.00 86 1015.5
20260905042031 13 280 19.3 0.0 0.00 1.09 0.00 86 1015.3
20260905041531 13 250 14.5 0.0 0.00 1.09 0.00 86 1015.3
20260905041031 13 265 14.5 0.0 0.00 1.09 0.00 86 1015.2
20260905040532 13 260 16.1 0.0 0.00 1.09 0.00 86 1015.3
20260905040032 13 272 19.3 0.0 0.00 1.09 0.00 86 1015.3
20260905035532 13 260 19.3 0.0 0.00 1.09 0.00 86 1015.3